Live-Position
3D-Globus wird geladen...
Über Starlink 32173
Group: 3 satellites
Beschreibung wird geladen...
Nächste Überflüge
Passes for default location (London). Set your location on the main map for personalized predictions.
Höhenverlauf
Loading altitude history...
No altitude history available
Zweizeiliger Elementsatz
1 60586U 24150D 26129.98026258 -.00001821 00000-0 -42792-4 0 9999
2 60586 53.1622 21.7402 0001246 76.5249 283.5892 15.34389850 97434
Epoch: 9. Mai 2026 •
Age: 23 hours
Aktueller Status
Höhe 464.1 km
Geschwindigkeit 7.64 km/s
Subsatellitenpunkt -1.91°S,
3.02°W
Startdatum 20. Aug. 2024
Alter 1.7 years
Typ internet
Startgruppe
Falcon 9 •
Group 10-5 •
22 satellites
Starlink 31844
60583
Starlink 32204 60584
Starlink 32130 60585
Starlink 31911 60587
Starlink 31994 60588
Starlink 32169 60589
Starlink 32209 60590
Starlink 32170 60591
Starlink 31497 60592
Starlink 32161 60593
Starlink 32210 60594
Starlink 32202 60595
Starlink 31930 60596
Starlink 32162 60597
Starlink 32208 60598
Starlink 32165 60599
Starlink 31923 60600
Starlink 31988 60601
Starlink 31983 60602
Starlink 31874 60603
...and 1 more
Technische Details
Klassifizierung Payload
Masse 730.00 kg
Trockenmasse 700.00 kg
Gesamtmasse 730.00 kg
Länge 0.30 m
Durchmesser 4.10 m
Spannweite 29.00 m
Form Box + pan
Hersteller SPXS
Bus-Typ Starlink V2M
Phasenstatus In Orbit
Besitzer/Staat SPXS/US
Most Searched
Loading...